This demonstration page uses our WeatherBlox Daily Observations layout. Learn more.

Left ArrowRight Arrow

Hourly Observations for January 5, 2015

Temp ( °F °C ) Dew Point ( °F °C ) Humidity (%) Winds ( mph kmh ) Pressure ( in mb ) Visibility ( mi km ) Precip ( " mm )
12:53 am 00:53 Mostly Cloudy 44 6.7 35 1.7 71 71 WNW 8 13 30.36 1028 10 16 0.00 0.00
1:53 am 01:53 Cloudy 43 6.1 35 1.7 74 74 NW 9 15 30.36 1028 10 16 0.00 0.00
2:53 am 02:53 Partly Cloudy 42 5.6 33 0.6 71 71 NNW 9 15 30.37 1028 10 16 0.00 0.00
3:23 am 03:23 Cloudy 42 5.6 33 0.6 71 71 NW 8 13 30.42 1030 10 16 0.00 0.00
3:53 am 03:53 Cloudy 42 5.6 32 0 68 68 NNW 14 22 30.39 1029 10 16 0.00 0.00
4:53 am 04:53 Cloudy 41 5 30 -1.1 65 65 NNW 12 19 30.40 1029 10 16 0.00 0.00
5:53 am 05:53 Cloudy 40 4.4 30 -1.1 68 68 NNW 9 15 30.42 1030 10 16 0.00 0.00
6:35 am 06:35 Partly Cloudy 39 3.9 28 -2.2 65 65 NNW 9 15 30.48 1032 10 16 0.00 0.00
6:53 am 06:53 Mostly Clear 38 3.3 28 -2.2 68 68 NNW 10 17 30.45 1031 10 16 0.00 0.00
7:53 am 07:53 Sunny 37 2.8 27 -2.8 67 67 NNW 8 13 30.48 1032 10 16 0.00 0.00
8:53 am 08:53 Sunny 37 2.8 27 -2.8 67 67 NNW 10 17 30.51 1033 10 16 0.00 0.00
9:53 am 09:53 Sunny 37 2.8 24 -4.4 59 59 NNW 10 17 30.55 1035 10 16 0.00 0.00
10:53 am 10:53 Sunny 39 3.9 24 -4.4 55 55 NNW 10 17 30.55 1035 10 16 0.00 0.00
11:53 am 11:53 Sunny 41 5 22 -5.6 47 47 NNW 10 17 30.54 1034 10 16 0.00 0.00
12:53 pm 12:53 Sunny 43 6.1 23 -5 45 45 NNW 10 17 30.51 1033 10 16 0.00 0.00
1:53 pm 13:53 Sunny 44 6.7 22 -5.6 41 41 WNW 12 19 30.49 1033 10 16 0.00 0.00
2:53 pm 14:53 Sunny 46 7.8 20 -6.7 35 35 NNW 13 20 30.48 1032 10 16 0.00 0.00
3:53 pm 15:53 Sunny 46 7.8 20 -6.7 35 35 NW 12 19 30.47 1032 10 16 0.00 0.00
4:53 pm 16:53 Sunny 45 7.2 20 -6.7 37 37 NW 9 15 30.47 1032 10 16 0.00 0.00
5:53 pm 17:53 Clear 42 5.6 21 -6.1 43 43 NW 6 9 30.47 1032 10 16 0.00 0.00
6:53 pm 18:53 Clear 40 4.4 21 -6.1 47 47 NNW 6 9 30.47 1032 10 16 0.00 0.00
7:53 pm 19:53 Clear 39 3.9 21 -6.1 48 48 ENE 3 6 30.45 1031 10 16 0.00 0.00
8:53 pm 20:53 Clear 37 2.8 21 -6.1 52 52 Calm 30.44 1031 10 16 0.00 0.00
9:53 pm 21:53 Clear 33 0.6 25 -3.9 72 72 Calm 30.44 1031 10 16 0.00 0.00
10:53 pm 22:53 Clear 32 0 26 -3.3 79 79 Calm 30.43 1030 10 16 0.00 0.00
11:53 pm 23:53 Clear 32 0 26 -3.3 79 79 Calm 30.43 1030 10 16 0.00 0.00

Powered by AerisWeather